Dewpoint
46 49 48 50 50 52 51 53 54 57 58 56 52 51 51 53 59 62 59 60 57 57 57 55 55 52 49 48 48 45 42 39 42 40 41 39 40 38 35 35 32 32 32
43 48 50 49 51 51 52 52 53 55 57 56 52 50 52 53 55 58 60 59 59 56 56 55 53 52 48 49 48 44 40 42 43 41 41 38 36 37 37 35 33 36 33
41 45 48 50 52 52 54 54 54 56 59 57 53 51 53 56 56 56 56 58 58 55 54 54 52 51 49 48 48 44 44 43 43 44 40 35 31 34 36 37 35 36 34
42 42 47 49 51 53 55 55 55 56 59 60 56 53 52 55 57 57 56 55 56 55 52 52 53 52 49 47 46 42 45 45 43 42 40 39 37 31 28 34 36 36 35
42 43 45 48 51 52 55 56 55 55 56 60 60 55 54 55 58 57 57 57 54 53 53 52 53 51 47 49 48 45 47 45 44 41 39 39 37 37 33 31 30 33 30
41 41 43 47 48 51 55 58 55 54 55 60 60 60 57 58 60 58 56 55 54 53 53 50 53 49 48 49 44 47 46 46 44 40 37 37 33 32 33 31 30 28 28
40 40 41 43 48 51 55 56 55 55 56 58 61 62 61 61 60 59 58 56 55 54 53 51 49 48 47 44 46 47 47 46 41 41 35 35 35 33 30 28 28 28 28
40 39 39 44 47 51 54 55 55 56 57 60 61 61 59 58 60 60 59 57 55 52 50 48 47 46 46 45 47 46 45 44 43 40 42 37 35 33 31 30 30 28 27
37 39 39 40 46 49 54 58 56 57 59 61 61 60 60 59 60 60 59 57 52 48 48 47 45 46 45 46 46 45 43 43 44 44 42 39 35 33 33 32 30 30 28
33 36 39 41 43 47 50 58 58 57 59 61 60 60 59 60 60 59 58 55 51 49 48 47 45 46 45 43 44 40 41 41 41 40 39 39 36 34 33 29 30 28 28
37 39 40 40 43 46 49 53 57 57 59 60 60 57 57 58 59 59 57 53 51 49 48 46 45 44 44 44 41 40 39 38 41 38 40 39 37 34 33 34 33 30 29
33 40 43 45 46 47 48 52 56 57 57 60 57 56 58 58 59 58 57 55 53 51 50 46 44 44 42 40 38 37 36 35 38 39 42 40 34 36 36 34 33 32 31
31 40 46 48 50 51 52 53 55 55 56 58 56 57 59 59 58 58 57 54 53 51 48 44 44 42 40 37 37 38 39 40 42 42 40 37 36 36 35 35 34 32 27
29 35 44 48 51 53 54 54 56 56 56 56 56 58 56 56 56 54 53 52 51 50 48 46 42 41 36 37 38 41 42 42 40 41 38 37 36 35 36 34 35 32 32
29 34 43 48 51 53 54 55 56 56 55 54 54 55 55 53 53 51 51 50 50 48 42 41 39 39 39 39 40 41 41 40 40 41 40 39 37 37 36 32 35 34 31
35 40 43 48 50 52 53 53 53 54 53 52 51 51 50 49 49 48 47 46 42 40 39 38 39 39 37 39 40 39 39 40 39 40 39 37 37 37 35 35 35 35 35
40 43 46 48 50 50 51 50 49 49 48 46 45 45 44 43 43 40 38 38 37 38 38 39 39 39 40 39 39 37 39 39 38 38 39 35 28 30 30 32 34 33 33
42 43 44 45 45 45 45 45 44 44 44 43 43 43 42 40 38 37 37 37 39 39 39 39 39 39 38 38 38 37 38 38 38 36 32 32 32 31 31 32 32 33 33
41 41 41 42 42 42 42 41 40 40 40 39 39 39 40 39 39 39 40 40 39 39 39 39 39 39 40 38 37 37 36 33 32 30 29 29 30 31 34 31 33 32 32
39 39 39 39 39 39 39 38 38 38 38 39 38 39 39 39 39 40 39 40 40 39 39 39 39 38 38 37 37 35 33 32 32 31 31 31 31 32 32 33 32 32 31
37 38 38 38 38 38 39 38 38 37 37 38 38 38 39 39 39 39 39 39 38 36 36 34 34 31 31 32 34 33 33 33 32 31 32 33 32 33 34 34 35 33 32
36 37 38 38 38 38 38 37 37 38 39 39 38 37 37 34 32 31 29 27 29 31 33 34 33 34 33 32 30 30 28 27 27 26 28 29 28 28 28 30 32 34 33
35 37 37 37 37 37 37 37 37 36 37 35 31 28 27 26 27 28 28 26 27 28 28 25 27 25 27 27 29 26 25 24 25 26 26 26 26 27 27 29 32 33 34
35 36 37 36 37 36 36 36 35 33 31 29 28 27 26 24 23 19 17 20 24 24 23 23 23 23 25 26 24 21 22 22 22 23 25 24 25 27 28 28 29 31 30
35 36 35 34 33 32 31 30 29 28 27 26 25 24 22 20 18 19 19 21 23 22 22 23 22 26 25 22 20 20 20 22 21 23 25 26 25 26 27 28 29 30 30
35 34 33 32 31 30 28 28 27 26 24 23 22 25 24 20 16 17 23 23 23 21 21 20 21 23 19 17 17 18 18 19 20 19 22 24 25 24 23 24 26 28 29
Lifted_Index
-2 -1 -1 0 0 1 1 1 1 -0 -1 -1 0 1 1 -1 -2 -3 -3 -3 -2 -1 -1 0 1 2 3 4 5 7 7 7 6 6 6 7 8 9 9 10 10 10 10
-2 -2 -1 -0 -0 0 0 0 0 -1 -2 -1 -0 0 0 -1 -2 -2 -3 -3 -2 -1 -0 0 1 2 3 4 6 7 7 7 6 5 5 6 7 9 9 10 10 10 10
-2 -2 -2 -1 -1 -1 -1 -1 -1 -2 -2 -2 -1 -1 -1 -1 -2 -2 -2 -2 -1 -1 0 1 2 3 4 5 6 7 7 6 5 5 5 5 6 7 8 9 9 9 9
-2 -2 -2 -2 -2 -2 -2 -2 -2 -2 -3 -3 -3 -2 -2 -2 -2 -2 -2 -1 -1 -0 1 1 2 3 4 5 6 7 6 6 5 5 6 7 7 7 7 8 9 9 9
-2 -2 -2 -2 -2 -2 -2 -3 -3 -3 -3 -4 -4 -3 -2 -3 -3 -2 -2 -1 -0 0 1 1 2 3 4 5 6 7 6 6 5 6 7 8 8 7 7 7 8 8 9
-2 -2 -2 -3 -3 -3 -3 -3 -3 -3 -4 -4 -4 -4 -3 -3 -3 -2 -1 -1 -0 -0 0 1 1 2 4 6 6 7 6 6 6 6 7 8 8 8 8 8 8 8 9
-2 -2 -2 -3 -3 -4 -4 -4 -4 -4 -4 -4 -5 -4 -3 -3 -3 -2 -2 -1 -1 -1 -0 0 1 2 4 6 6 7 6 6 6 7 8 8 8 8 9 9 9 9 9
-2 -2 -2 -3 -4 -4 -5 -5 -5 -4 -4 -4 -4 -3 -2 -2 -3 -3 -2 -1 -1 -1 -1 -0 1 2 4 6 6 6 6 7 7 8 9 8 8 9 9 9 9 9 9
-2 -2 -2 -3 -4 -4 -5 -6 -6 -5 -5 -5 -4 -3 -3 -3 -3 -3 -2 -1 -1 -1 -1 -0 1 2 4 5 6 7 7 8 9 9 8 8 9 9 9 9 10 9 9
-2 -2 -3 -3 -3 -4 -5 -6 -6 -6 -5 -5 -4 -3 -3 -3 -3 -2 -2 -1 -1 -1 -1 -0 1 2 3 5 6 8 8 9 9 9 8 8 9 9 10 10 10 10 10
-2 -2 -3 -3 -3 -4 -5 -6 -6 -6 -6 -5 -4 -3 -3 -3 -2 -2 -2 -1 -1 -1 -0 1 1 2 3 5 7 8 9 9 9 9 8 8 9 9 10 10 10 10 10
-2 -3 -3 -4 -4 -4 -5 -5 -6 -6 -6 -5 -4 -3 -3 -3 -3 -2 -2 -1 -0 0 1 1 2 3 4 6 8 9 9 10 9 9 9 9 9 9 10 10 10 10 10
-1 -2 -3 -4 -4 -5 -5 -5 -6 -6 -6 -6 -5 -4 -4 -3 -3 -2 -1 -1 -0 0 1 2 3 4 6 8 9 10 10 10 10 9 9 9 9 9 9 9 9 9 9
-0 -1 -3 -4 -5 -5 -5 -5 -5 -5 -5 -5 -4 -4 -3 -3 -2 -1 -1 -0 0 1 2 3 4 6 8 9 10 10 10 10 9 9 9 9 10 9 9 9 8 8 8
0 -1 -2 -4 -4 -5 -5 -5 -4 -4 -4 -3 -3 -2 -2 -1 -1 -0 0 1 1 2 3 4 6 7 9 10 10 9 9 10 9 9 9 9 9 9 9 9 8 7 7
-0 -1 -2 -3 -3 -3 -4 -3 -3 -3 -2 -1 -1 0 1 1 1 1 1 2 2 3 5 6 7 8 9 10 9 10 10 10 10 9 9 9 10 9 9 9 8 7 7
-0 -1 -1 -2 -2 -2 -2 -2 -1 -0 0 1 2 3 3 3 3 3 3 3 4 5 7 8 9 10 10 10 10 11 11 11 10 10 10 10 10 10 9 8 8 7 7
1 1 0 0 -0 -0 0 1 2 2 3 4 4 5 5 5 4 4 5 5 7 8 9 10 11 11 11 11 11 11 11 11 11 11 11 11 10 10 9 8 7 6 6
2 2 2 2 2 2 3 3 4 4 5 5 5 6 6 6 6 6 7 8 9 10 11 11 12 12 12 12 12 12 12 12 12 12 12 11 11 10 9 8 6 5 5
3 3 3 3 4 4 4 4 5 5 5 6 7 7 8 8 8 9 10 10 11 11 12 12 12 12 12 13 13 13 13 13 13 13 12 12 11 10 9 8 6 5 4
3 4 4 4 4 5 5 5 5 6 6 7 8 8 9 10 11 11 12 12 13 13 13 13 13 13 13 14 14 14 14 15 15 15 14 13 12 11 10 8 7 6 5
4 4 4 5 5 5 5 5 5 6 7 8 8 9 11 12 13 13 14 14 14 14 14 14 14 14 14 15 15 15 16 16 17 16 15 15 14 13 11 9 8 7 6
4 4 5 5 5 5 6 6 6 7 8 8 9 11 13 14 15 15 15 15 15 15 15 16 16 16 16 16 16 17 17 18 18 17 17 16 15 13 11 10 8 8 7
4 4 5 5 5 6 6 6 7 8 9 10 11 13 15 16 16 16 16 16 16 16 16 17 17 17 17 18 18 19 19 19 19 18 17 16 14 12 10 9 8 8 7
4 5 5 5 5 6 7 8 9 10 10 12 13 15 16 17 17 17 17 17 18 18 18 18 18 18 19 19 20 20 20 19 19 18 17 15 13 12 10 9 8 7 7
4 5 5 5 5 6 7 9 10 11 12 13 15 16 17 17 17 17 17 18 19 19 19 19 20 20 20 20 21 20 20 19 19 17 16 14 13 12 11 10 9 7 7